| time (UTC) | temp F | wind direction | speed MPH | gust MPH | rain 1hr in | rain 24hr in | rain mn in | humidity % | barometer mb |
| 20260905195939 | 100 | 161 | 1.0 | 2.0 | 0.00 | 0.00 | 0.00 | 46 | 1015.8 |
| 20260905195434 | 99 | 157 | 1.0 | 2.0 | 0.00 | 0.00 | 0.00 | 47 | 1015.9 |
| 20260905194930 | 100 | 140 | 1.0 | 1.0 | 0.00 | 0.00 | 0.00 | 47 | 1016.0 |
| 20260905194428 | 100 | 159 | 0.0 | 1.0 | 0.00 | 0.00 | 0.00 | 47 | 1016.2 |
| 20260905193923 | 100 | 141 | 0.0 | 2.0 | 0.00 | 0.00 | 0.00 | 47 | 1016.1 |
| 20260905193418 | 100 | 167 | 1.0 | 3.0 | 0.00 | 0.00 | 0.00 | 46 | 1016.1 |
| 20260905192913 | 100 | 155 | 0.0 | 1.0 | 0.00 | 0.00 | 0.00 | 47 | 1016.5 |
| 20260905192408 | 100 | 133 | 0.0 | 1.0 | 0.00 | 0.00 | 0.00 | 47 | 1016.4 |
| 20260905191903 | 100 | 117 | 1.0 | 2.0 | 0.00 | 0.00 | 0.00 | 47 | 1016.5 |
| 20260905191402 | 99 | 155 | 0.0 | 2.0 | 0.00 | 0.00 | 0.00 | 47 | 1016.8 |
| 20260905190901 | 98 | 153 | 1.0 | 2.0 | 0.00 | 0.00 | 0.00 | 49 | 1016.7 |
| 20260905190354 | 98 | 113 | 1.0 | 2.0 | 0.00 | 0.00 | 0.00 | 48 | 1016.9 |
| 20260905185853 | 99 | 163 | 1.0 | 2.0 | 0.00 | 0.00 | 0.00 | 48 | 1016.8 |
| 20260905185349 | 99 | 133 | 0.0 | 2.0 | 0.00 | 0.00 | 0.00 | 48 | 1017.0 |
| 20260905184848 | 98 | 141 | 1.0 | 2.0 | 0.00 | 0.00 | 0.00 | 49 | 1017.0 |
| 20260905184347 | 98 | 155 | 0.0 | 1.0 | 0.00 | 0.00 | 0.00 | 48 | 1017.0 |
| 20260905183845 | 98 | 154 | 0.0 | 2.0 | 0.00 | 0.00 | 0.00 | 48 | 1017.3 |
| 20260905183341 | 97 | 128 | 0.0 | 1.0 | 0.00 | 0.00 | 0.00 | 49 | 1017.4 |
| 20260905182836 | 98 | 163 | 0.0 | 3.0 | 0.00 | 0.00 | 0.00 | 47 | 1017.3 |
| 20260905182335 | 98 | 153 | 0.0 | 0.0 | 0.00 | 0.00 | 0.00 | 48 | 1017.4 |
| 20260905181831 | 98 | 159 | 0.0 | 2.0 | 0.00 | 0.00 | 0.00 | 47 | 1017.4 |
| 20260905181330 | 98 | 156 | 1.0 | 2.0 | 0.00 | 0.00 | 0.00 | 47 | 1017.6 |
| 20260905180830 | 97 | 155 | 0.0 | 1.0 | 0.00 | 0.00 | 0.00 | 49 | 1017.3 |
| 20260905180325 | 97 | 137 | 0.0 | 2.0 | 0.00 | 0.00 | 0.00 | 48 | 1017.7 |
| 20260905175820 | 97 | 203 | 1.0 | 2.0 | 0.00 | 0.00 | 0.00 | 48 | 1017.8 |
| 20260905175314 | 98 | 179 | 1.0 | 1.0 | 0.00 | 0.00 | 0.00 | 47 | 1017.6 |
| 20260905174809 | 98 | 255 | 0.0 | 2.0 | 0.00 | 0.00 | 0.00 | 49 | 1017.9 |
| 20260905174305 | 98 | 136 | 0.0 | 1.0 | 0.00 | 0.00 | 0.00 | 49 | 1017.9 |
| 20260905173801 | 97 | 170 | 1.0 | 2.0 | 0.00 | 0.00 | 0.00 | 51 | 1017.8 |
| 20260905173257 | 96 | 158 | 1.0 | 2.0 | 0.00 | 0.00 | 0.00 | 50 | 1017.9 |
| 20260905172756 | 96 | 166 | 1.0 | 2.0 | 0.00 | 0.00 | 0.00 | 50 | 1018.1 |
| 20260905172255 | 96 | 152 | 0.0 | 2.0 | 0.00 | 0.00 | 0.00 | 50 | 1017.9 |
| 20260905171751 | 96 | 164 | 0.0 | 2.0 | 0.00 | 0.00 | 0.00 | 51 | 1018.0 |
| 20260905171248 | 96 | 142 | 0.0 | 2.0 | 0.00 | 0.00 | 0.00 | 51 | 1018.1 |
| 20260905170744 | 95 | 147 | 0.0 | 2.0 | 0.00 | 0.00 | 0.00 | 50 | 1018.3 |
| 20260905170239 | 96 | 142 | 1.0 | 3.0 | 0.00 | 0.00 | 0.00 | 50 | 1018.1 |
| 20260905165738 | 95 | 130 | 0.0 | 2.0 | 0.00 | 0.00 | 0.00 | 50 | 1018.4 |
| 20260905165234 | 95 | 123 | 0.0 | 1.0 | 0.00 | 0.00 | 0.00 | 50 | 1018.4 |
| 20260905164734 | 96 | 133 | 0.0 | 3.0 | 0.00 | 0.00 | 0.00 | 49 | 1018.4 |
| 20260905164228 | 96 | 186 | 1.0 | 2.0 | 0.00 | 0.00 | 0.00 | 49 | 1018.4 |
| 20260905163725 | 95 | 151 | 1.0 | 2.0 | 0.00 | 0.00 | 0.00 | 49 | 1018.4 |
| 20260905163220 | 94 | 176 | 1.0 | 2.0 | 0.00 | 0.00 | 0.00 | 49 | 1018.8 |
| 20260905162717 | 94 | 156 | 1.0 | 2.0 | 0.00 | 0.00 | 0.00 | 50 | 1018.9 |
| 20260905162216 | 94 | 156 | 1.0 | 2.0 | 0.00 | 0.00 | 0.00 | 49 | 1018.9 |
| 20260905161711 | 94 | 166 | 1.0 | 3.0 | 0.00 | 0.00 | 0.00 | 50 | 1019.1 |
| 20260905161209 | 93 | 147 | 1.0 | 1.0 | 0.00 | 0.00 | 0.00 | 51 | 1018.8 |
| 20260905160708 | 93 | 153 | 1.0 | 1.0 | 0.00 | 0.00 | 0.00 | 51 | 1018.9 |
| 20260905160208 | 93 | 142 | 1.0 | 1.0 | 0.00 | 0.00 | 0.00 | 52 | 1018.9 |
| 20260905155702 | 93 | 165 | 1.0 | 1.0 | 0.00 | 0.00 | 0.00 | 52 | 1018.9 |
| 20260905155202 | 92 | 167 | 1.0 | 2.0 | 0.00 | 0.00 | 0.00 | 53 | 1019.0 |
| 20260905154655 | 91 | 197 | 1.0 | 1.0 | 0.00 | 0.00 | 0.00 | 55 | 1018.9 |
| 20260905154151 | 91 | 181 | 1.0 | 2.0 | 0.00 | 0.00 | 0.00 | 54 | 1018.8 |
| 20260905153641 | 91 | 152 | 0.0 | 1.0 | 0.00 | 0.00 | 0.00 | 55 | 1018.9 |
| 20260905153136 | 91 | 176 | 2.0 | 2.0 | 0.00 | 0.00 | 0.00 | 55 | 1018.9 |
| 20260905152631 | 90 | 140 | 0.0 | 1.0 | 0.00 | 0.00 | 0.00 | 57 | 1019.1 |
| 20260905152126 | 89 | 134 | 1.0 | 2.0 | 0.00 | 0.00 | 0.00 | 58 | 1018.9 |
| 20260905151621 | 89 | 141 | 0.0 | 1.0 | 0.00 | 0.00 | 0.00 | 59 | 1019.0 |
| 20260905151116 | 88 | 156 | 1.0 | 1.0 | 0.00 | 0.00 | 0.00 | 60 | 1019.1 |
| 20260905150611 | 87 | 154 | 0.0 | 1.0 | 0.00 | 0.00 | 0.00 | 62 | 1019.1 |
| 20260905150109 | 87 | 151 | 1.0 | 2.0 | 0.00 | 0.00 | 0.00 | 63 | 1019.2 |
| 20260905145603 | 86 | 144 | 0.0 | 2.0 | 0.00 | 0.00 | 0.00 | 65 | 1019.3 |
| 20260905145102 | 86 | 152 | 0.0 | 0.0 | 0.00 | 0.00 | 0.00 | 66 | 1019.4 |
| 20260905144557 | 85 | 154 | 1.0 | 3.0 | 0.00 | 0.00 | 0.00 | 67 | 1019.4 |
| 20260905144056 | 84 | 144 | 0.0 | 1.0 | 0.00 | 0.00 | 0.00 | 69 | 1019.5 |
| 20260905143555 | 84 | 152 | 1.0 | 1.0 | 0.00 | 0.00 | 0.00 | 71 | 1019.4 |
| 20260905143051 | 84 | 139 | 0.0 | 1.0 | 0.00 | 0.00 | 0.00 | 73 | 1019.5 |
| 20260905142549 | 83 | 154 | 1.0 | 2.0 | 0.00 | 0.00 | 0.00 | 75 | 1019.5 |
| 20260905142044 | 82 | 147 | 0.0 | 1.0 | 0.00 | 0.00 | 0.00 | 77 | 1019.4 |
| 20260905141538 | 82 | 150 | 0.0 | 2.0 | 0.00 | 0.00 | 0.00 | 79 | 1019.4 |
| 20260905141035 | 81 | 149 | 0.0 | 1.0 | 0.00 | 0.00 | 0.00 | 81 | 1019.8 |
| 20260905140530 | 80 | 146 | 0.0 | 1.0 | 0.00 | 0.00 | 0.00 | 81 | 1019.6 |
| 20260905140029 | 79 | 155 | 1.0 | 1.0 | 0.00 | 0.00 | 0.00 | 82 | 1019.7 |
| 20260905135525 | 79 | 153 | 0.0 | 1.0 | 0.00 | 0.00 | 0.00 | 83 | 1019.8 |
| 20260905135019 | 79 | 158 | 1.0 | 2.0 | 0.00 | 0.00 | 0.00 | 83 | 1019.9 |
| 20260905134514 | 78 | 156 | 0.0 | 1.0 | 0.00 | 0.00 | 0.00 | 84 | 1019.8 |
| 20260905134013 | 78 | 157 | 0.0 | 1.0 | 0.00 | 0.00 | 0.00 | 85 | 1020.1 |
| 20260905133509 | 77 | 151 | 0.0 | 1.0 | 0.00 | 0.00 | 0.00 | 86 | 1020.3 |
| 20260905133008 | 77 | 145 | 0.0 | 0.0 | 0.00 | 0.00 | 0.00 | 86 | 1020.3 |
| 20260905132503 | 77 | 142 | 1.0 | 1.0 | 0.00 | 0.00 | 0.00 | 87 | 1020.2 |
| 20260905132003 | 77 | 165 | 0.0 | 1.0 | 0.00 | 0.00 | 0.00 | 88 | 1020.4 |
| 20260905131459 | 76 | 147 | 0.0 | 2.0 | 0.00 | 0.00 | 0.00 | 89 | 1020.3 |
| 20260905130954 | 76 | 153 | 0.0 | 1.0 | 0.00 | 0.00 | 0.00 | 90 | 1020.3 |
| 20260905130453 | 76 | 148 | 0.0 | 1.0 | 0.00 | 0.00 | 0.00 | 91 | 1020.4 |
| 20260905125952 | 76 | 150 | 0.0 | 1.0 | 0.00 | 0.00 | 0.00 | 91 | 1020.1 |
| 20260905125447 | 76 | 146 | 0.0 | 1.0 | 0.00 | 0.00 | 0.00 | 92 | 1020.3 |
| 20260905124943 | 75 | 146 | 0.0 | 1.0 | 0.00 | 0.00 | 0.00 | 93 | 1020.3 |
| 20260905124439 | 75 | 150 | 1.0 | 1.0 | 0.00 | 0.00 | 0.00 | 94 | 1020.3 |
| 20260905123934 | 75 | 143 | 0.0 | 3.0 | 0.00 | 0.00 | 0.00 | 94 | 1020.6 |
| 20260905123431 | 74 | 150 | 1.0 | 1.0 | 0.00 | 0.00 | 0.00 | 94 | 1020.5 |
| 20260905122926 | 74 | 153 | 0.0 | 0.0 | 0.00 | 0.00 | 0.00 | 94 | 1020.0 |
| 20260905122425 | 74 | 149 | 0.0 | 0.0 | 0.00 | 0.00 | 0.00 | 94 | 1020.1 |
| 20260905121921 | 74 | 141 | 0.0 | 2.0 | 0.00 | 0.00 | 0.00 | 93 | 1019.8 |
| 20260905121417 | 74 | 138 | 0.0 | 2.0 | 0.00 | 0.00 | 0.00 | 93 | 1019.8 |
| 20260905120915 | 74 | 139 | 1.0 | 1.0 | 0.00 | 0.00 | 0.00 | 93 | 1019.0 |
| 20260905120410 | 74 | 144 | 0.0 | 0.0 | 0.00 | 0.00 | 0.00 | 93 | 1018.9 |
| 20260905115904 | 74 | 144 | 0.0 | 0.0 | 0.00 | 0.00 | 0.00 | 92 | 1018.8 |
| 20260905115403 | 74 | 159 | 0.0 | 2.0 | 0.00 | 0.00 | 0.00 | 92 | 1018.8 |
| 20260905114853 | 74 | 147 | 1.0 | 1.0 | 0.00 | 0.00 | 0.00 | 92 | 1018.4 |
| 20260905114352 | 74 | 149 | 0.0 | 0.0 | 0.00 | 0.00 | 0.00 | 92 | 1018.5 |
| 20260905113846 | 74 | 154 | 0.0 | 0.0 | 0.00 | 0.00 | 0.00 | 92 | 1018.5 |
| 20260905113342 | 74 | 154 | 0.0 | 0.0 | 0.00 | 0.00 | 0.00 | 91 | 1018.5 |
| 20260905112837 | 74 | 154 | 0.0 | 0.0 | 0.00 | 0.00 | 0.00 | 91 | 1018.5 |
| 20260905112332 | 74 | 155 | 0.0 | 1.0 | 0.00 | 0.00 | 0.00 | 91 | 1018.4 |
| 20260905111827 | 74 | 149 | 0.0 | 0.0 | 0.00 | 0.00 | 0.00 | 91 | 1018.5 |
| 20260905111321 | 74 | 154 | 0.0 | 1.0 | 0.00 | 0.00 | 0.00 | 90 | 1018.4 |
| 20260905110820 | 75 | 139 | 0.0 | 0.0 | 0.00 | 0.00 | 0.00 | 90 | 1018.5 |
| 20260905110314 | 75 | 139 | 0.0 | 0.0 | 0.00 | 0.00 | 0.00 | 90 | 1018.2 |
| 20260905105810 | 75 | 150 | 0.0 | 0.0 | 0.00 | 0.00 | 0.00 | 90 | 1018.1 |
| 20260905105309 | 75 | 143 | 0.0 | 0.0 | 0.00 | 0.00 | 0.00 | 90 | 1018.0 |
| 20260905104803 | 75 | 143 | 0.0 | 0.0 | 0.00 | 0.00 | 0.00 | 90 | 1018.0 |
| 20260905104300 | 75 | 147 | 0.0 | 0.0 | 0.00 | 0.00 | 0.00 | 90 | 1017.8 |
| 20260905103759 | 75 | 145 | 0.0 | 0.0 | 0.00 | 0.00 | 0.00 | 89 | 1017.9 |
| 20260905103255 | 75 | 145 | 0.0 | 0.0 | 0.00 | 0.00 | 0.00 | 89 | 1017.7 |
| 20260905102750 | 75 | 145 | 0.0 | 1.0 | 0.00 | 0.00 | 0.00 | 89 | 1017.9 |
| 20260905102247 | 75 | 149 | 0.0 | 1.0 | 0.00 | 0.00 | 0.00 | 89 | 1017.9 |
| 20260905101741 | 75 | 155 | 1.0 | 1.0 | 0.00 | 0.00 | 0.00 | 89 | 1017.8 |
| 20260905101239 | 75 | 140 | 0.0 | 0.0 | 0.00 | 0.00 | 0.00 | 89 | 1017.7 |
| 20260905100734 | 75 | 147 | 0.0 | 0.0 | 0.00 | 0.00 | 0.00 | 89 | 1018.0 |
| 20260905100230 | 75 | 149 | 0.0 | 1.0 | 0.00 | 0.00 | 0.00 | 88 | 1017.9 |
| 20260905095729 | 75 | 140 | 0.0 | 0.0 | 0.00 | 0.00 | 0.00 | 88 | 1017.6 |
| 20260905095229 | 75 | 146 | 0.0 | 0.0 | 0.00 | 0.00 | 0.00 | 87 | 1017.5 |
| 20260905094724 | 75 | 146 | 0.0 | 0.0 | 0.00 | 0.00 | 0.00 | 87 | 1017.4 |
| 20260905094219 | 75 | 146 | 0.0 | 0.0 | 0.00 | 0.00 | 0.00 | 87 | 1017.5 |
| 20260905093713 | 75 | 146 | 0.0 | 0.0 | 0.00 | 0.00 | 0.00 | 86 | 1017.4 |
| 20260905093209 | 76 | 146 | 0.0 | 0.0 | 0.00 | 0.00 | 0.00 | 86 | 1017.3 |
| 20260905092705 | 76 | 146 | 0.0 | 0.0 | 0.00 | 0.00 | 0.00 | 85 | 1017.3 |
| 20260905092200 | 76 | 146 | 0.0 | 0.0 | 0.00 | 0.00 | 0.00 | 84 | 1017.0 |
| 20260905091659 | 76 | 147 | 0.0 | 0.0 | 0.00 | 0.00 | 0.00 | 84 | 1017.0 |
| 20260905091159 | 76 | 151 | 0.0 | 0.0 | 0.00 | 0.00 | 0.00 | 84 | 1016.9 |
| 20260905090653 | 77 | 152 | 0.0 | 0.0 | 0.00 | 0.00 | 0.00 | 83 | 1016.7 |
| 20260905090150 | 77 | 151 | 0.0 | 1.0 | 0.00 | 0.00 | 0.00 | 83 | 1017.0 |
| 20260905085648 | 77 | 141 | 0.0 | 0.0 | 0.00 | 0.00 | 0.00 | 83 | 1016.8 |
| 20260905085143 | 77 | 141 | 0.0 | 1.0 | 0.00 | 0.00 | 0.00 | 83 | 1016.9 |
| 20260905084643 | 78 | 151 | 0.0 | 0.0 | 0.00 | 0.00 | 0.00 | 83 | 1016.8 |
| 20260905084138 | 78 | 135 | 0.0 | 0.0 | 0.00 | 0.00 | 0.00 | 84 | 1016.9 |
| 20260905083632 | 78 | 135 | 0.0 | 1.0 | 0.00 | 0.00 | 0.00 | 84 | 1016.7 |
| 20260905083129 | 78 | 146 | 0.0 | 1.0 | 0.00 | 0.00 | 0.00 | 86 | 1016.7 |
| 20260905082624 | 77 | 150 | 0.0 | 2.0 | 0.00 | 0.00 | 0.00 | 88 | 1016.7 |
| 20260905082120 | 77 | 145 | 0.0 | 3.0 | 0.00 | 0.00 | 0.00 | 91 | 1016.9 |
| 20260905081619 | 77 | 135 | 1.0 | 10.0 | 0.00 | 0.00 | 0.00 | 93 | 1016.8 |
| 20260905081114 | 77 | 171 | 1.0 | 6.0 | 0.00 | 0.00 | 0.00 | 96 | 1017.2 |
| 20260905080609 | 76 | 148 | 1.0 | 5.0 | 0.00 | 0.00 | 0.00 | 97 | 1017.7 |
| 20260905075556 | 75 | 166 | 1.0 | 2.0 | 0.00 | 0.00 | 0.00 | 98 | 1017.6 |
| 20260905075050 | 75 | 144 | 0.0 | 1.0 | 0.00 | 0.00 | 0.00 | 97 | 1017.8 |
| 20260905074544 | 75 | 144 | 1.0 | 3.0 | 0.00 | 0.00 | 0.00 | 97 | 1017.7 |
| 20260905074040 | 75 | 149 | 0.0 | 0.0 | 0.00 | 0.00 | 0.00 | 97 | 1017.0 |
| 20260905073535 | 75 | 149 | 0.0 | 0.0 | 0.00 | 0.00 | 0.00 | 97 | 1017.2 |
| 20260905073031 | 75 | 149 | 0.0 | 0.0 | 0.00 | 0.00 | 0.00 | 97 | 1017.3 |
| 20260905072530 | 75 | 149 | 0.0 | 0.0 | 0.00 | 0.00 | 0.00 | 97 | 1017.4 |
| 20260905072026 | 75 | 146 | 0.0 | 0.0 | 0.00 | 0.00 | 0.00 | 97 | 1017.4 |
| 20260905071523 | 75 | 146 | 0.0 | 0.0 | 0.00 | 0.00 | 0.00 | 97 | 1017.2 |
| 20260905071022 | 75 | 146 | 0.0 | 0.0 | 0.00 | 0.00 | 0.00 | 97 | 1017.5 |
| 20260905070518 | 75 | 146 | 0.0 | 0.0 | 0.00 | 0.00 | 0.00 | 97 | 1017.6 |
| 20260905070014 | 75 | 145 | 0.0 | 0.0 | 0.00 | 0.00 | 0.00 | 97 | 1017.6 |
| 20260905065511 | 76 | 145 | 0.0 | 0.0 | 0.00 | 0.00 | 0.00 | 96 | 1017.4 |
| 20260905065007 | 76 | 145 | 0.0 | 0.0 | 0.00 | 0.00 | 0.00 | 96 | 1017.6 |
| 20260905064501 | 76 | 148 | 0.0 | 0.0 | 0.00 | 0.00 | 0.00 | 96 | 1017.6 |
| 20260905063956 | 76 | 148 | 0.0 | 0.0 | 0.00 | 0.00 | 0.00 | 96 | 1017.6 |
| 20260905063445 | 76 | 150 | 0.0 | 0.0 | 0.00 | 0.00 | 0.00 | 96 | 1017.9 |
| 20260905062941 | 76 | 149 | 0.0 | 0.0 | 0.00 | 0.00 | 0.00 | 96 | 1017.9 |
| 20260905062435 | 76 | 145 | 0.0 | 0.0 | 0.00 | 0.00 | 0.00 | 96 | 1017.9 |
| 20260905061930 | 76 | 145 | 0.0 | 0.0 | 0.00 | 0.00 | 0.00 | 96 | 1018.3 |
| 20260905061425 | 76 | 145 | 0.0 | 0.0 | 0.00 | 0.00 | 0.00 | 96 | 1018.0 |
| 20260905060924 | 76 | 145 | 0.0 | 0.0 | 0.00 | 0.00 | 0.00 | 96 | 1017.7 |
| 20260905060421 | 76 | 145 | 0.0 | 0.0 | 0.00 | 0.00 | 0.00 | 96 | 1018.1 |
| 20260905055920 | 76 | 145 | 0.0 | 0.0 | 0.00 | 0.00 | 0.00 | 95 | 1018.2 |
| 20260905055415 | 76 | 145 | 0.0 | 0.0 | 0.00 | 0.00 | 0.00 | 95 | 1018.0 |
| 20260905054914 | 77 | 145 | 0.0 | 0.0 | 0.00 | 0.00 | 0.00 | 95 | 1018.2 |
| 20260905054411 | 77 | 144 | 0.0 | 0.0 | 0.00 | 0.00 | 0.00 | 95 | 1018.3 |
| 20260905053910 | 77 | 143 | 0.0 | 0.0 | 0.00 | 0.00 | 0.00 | 95 | 1018.3 |
| 20260905053405 | 77 | 143 | 0.0 | 0.0 | 0.00 | 0.00 | 0.00 | 95 | 1018.5 |
| 20260905052901 | 77 | 144 | 0.0 | 0.0 | 0.00 | 0.00 | 0.00 | 95 | 1018.1 |
| 20260905052400 | 77 | 144 | 0.0 | 0.0 | 0.00 | 0.00 | 0.00 | 95 | 1018.2 |
| 20260905051900 | 77 | 143 | 0.0 | 0.0 | 0.00 | 0.00 | 0.00 | 94 | 1018.3 |
| 20260905051356 | 77 | 143 | 0.0 | 0.0 | 0.00 | 0.00 | 0.00 | 94 | 1018.3 |
| 20260905050853 | 77 | 148 | 0.0 | 0.0 | 0.00 | 0.00 | 0.00 | 94 | 1018.2 |
| 20260905050349 | 77 | 148 | 0.0 | 0.0 | 0.00 | 0.00 | 0.00 | 94 | 1018.2 |
| 20260905045848 | 77 | 146 | 0.0 | 0.0 | 0.00 | 0.00 | 0.00 | 94 | 1018.3 |
| 20260905045344 | 77 | 146 | 0.0 | 0.0 | 0.00 | 0.00 | 0.00 | 94 | 1018.3 |
| 20260905044839 | 77 | 146 | 0.0 | 0.0 | 0.00 | 0.00 | 0.00 | 93 | 1018.1 |
| 20260905044334 | 77 | 146 | 0.0 | 0.0 | 0.00 | 0.00 | 0.00 | 93 | 1018.2 |
| 20260905043833 | 77 | 149 | 0.0 | 0.0 | 0.00 | 0.00 | 0.00 | 93 | 1018.4 |
| 20260905043328 | 77 | 149 | 0.0 | 0.0 | 0.00 | 0.00 | 0.00 | 93 | 1018.4 |
| 20260905042823 | 78 | 149 | 0.0 | 0.0 | 0.00 | 0.00 | 0.00 | 93 | 1018.6 |
| 20260905042323 | 78 | 139 | 0.0 | 0.0 | 0.00 | 0.00 | 0.00 | 93 | 1018.4 |
| 20260905041818 | 78 | 139 | 0.0 | 0.0 | 0.00 | 0.00 | 0.00 | 93 | 1018.5 |
| 20260905041314 | 78 | 138 | 0.0 | 0.0 | 0.00 | 0.00 | 0.00 | 93 | 1018.4 |
| 20260905040809 | 78 | 138 | 0.0 | 0.0 | 0.00 | 0.00 | 0.00 | 92 | 1018.3 |
| 20260905040307 | 78 | 138 | 0.0 | 0.0 | 0.00 | 0.00 | 0.00 | 92 | 1018.4 |
| 20260905035802 | 78 | 138 | 0.0 | 0.0 | 0.00 | 0.00 | 0.00 | 92 | 1018.5 |
| 20260905035258 | 78 | 144 | 0.0 | 0.0 | 0.00 | 0.00 | 0.00 | 92 | 1018.5 |
| 20260905034754 | 78 | 144 | 0.0 | 0.0 | 0.00 | 0.00 | 0.00 | 92 | 1018.2 |
| 20260905034254 | 78 | 144 | 0.0 | 0.0 | 0.00 | 0.00 | 0.00 | 91 | 1018.4 |
| 20260905033753 | 78 | 144 | 0.0 | 0.0 | 0.00 | 0.00 | 0.00 | 91 | 1018.4 |
| 20260905033248 | 79 | 144 | 0.0 | 0.0 | 0.00 | 0.00 | 0.00 | 91 | 1018.2 |
| 20260905032748 | 79 | 144 | 0.0 | 0.0 | 0.00 | 0.00 | 0.00 | 91 | 1018.4 |
| 20260905032243 | 79 | 144 | 0.0 | 0.0 | 0.00 | 0.00 | 0.00 | 90 | 1018.4 |
| 20260905031738 | 79 | 144 | 0.0 | 0.0 | 0.00 | 0.00 | 0.00 | 90 | 1018.3 |
| 20260905031235 | 79 | 144 | 0.0 | 0.0 | 0.00 | 0.00 | 0.00 | 90 | 1018.3 |
| 20260905030729 | 79 | 144 | 0.0 | 0.0 | 0.00 | 0.00 | 0.00 | 90 | 1018.2 |
| 20260905030224 | 79 | 144 | 0.0 | 0.0 | 0.00 | 0.00 | 0.00 | 89 | 1018.4 |
| 20260905025719 | 80 | 144 | 0.0 | 0.0 | 0.00 | 0.00 | 0.00 | 89 | 1018.4 |
| 20260905025215 | 79 | 144 | 0.0 | 0.0 | 0.00 | 0.00 | 0.00 | 89 | 1018.5 |
| 20260905024710 | 80 | 144 | 0.0 | 0.0 | 0.00 | 0.00 | 0.00 | 88 | 1018.5 |
| 20260905024206 | 80 | 144 | 0.0 | 0.0 | 0.00 | 0.00 | 0.00 | 88 | 1018.1 |
| 20260905023701 | 80 | 144 | 0.0 | 0.0 | 0.00 | 0.00 | 0.00 | 88 | 1018.3 |
| 20260905023201 | 80 | 144 | 0.0 | 0.0 | 0.00 | 0.00 | 0.00 | 87 | 1018.5 |
| 20260905022700 | 80 | 144 | 0.0 | 0.0 | 0.00 | 0.00 | 0.00 | 87 | 1018.4 |
| 20260905022155 | 80 | 144 | 0.0 | 0.0 | 0.00 | 0.00 | 0.00 | 87 | 1018.1 |
| 20260905021655 | 80 | 144 | 0.0 | 0.0 | 0.00 | 0.00 | 0.00 | 86 | 1018.3 |
| 20260905021150 | 81 | 144 | 0.0 | 0.0 | 0.00 | 0.00 | 0.00 | 86 | 1018.3 |
| 20260905020645 | 81 | 143 | 0.0 | 0.0 | 0.00 | 0.00 | 0.00 | 85 | 1018.4 |
| 20260905020140 | 81 | 143 | 0.0 | 0.0 | 0.00 | 0.00 | 0.00 | 85 | 1018.4 |
| 20260905015638 | 81 | 143 | 0.0 | 0.0 | 0.00 | 0.00 | 0.00 | 84 | 1018.2 |
| 20260905015133 | 81 | 143 | 0.0 | 0.0 | 0.00 | 0.00 | 0.00 | 84 | 1018.3 |
| 20260905014627 | 82 | 143 | 0.0 | 0.0 | 0.00 | 0.00 | 0.00 | 83 | 1018.1 |
| 20260905014123 | 82 | 147 | 0.0 | 0.0 | 0.00 | 0.00 | 0.00 | 83 | 1017.9 |
| 20260905013619 | 82 | 147 | 0.0 | 0.0 | 0.00 | 0.00 | 0.00 | 82 | 1018.2 |
| 20260905013114 | 82 | 145 | 0.0 | 0.0 | 0.00 | 0.00 | 0.00 | 82 | 1017.9 |
| 20260905012609 | 83 | 142 | 0.0 | 0.0 | 0.00 | 0.00 | 0.00 | 81 | 1018.0 |
| 20260905012106 | 83 | 142 | 0.0 | 0.0 | 0.00 | 0.00 | 0.00 | 81 | 1018.1 |
| 20260905011601 | 83 | 143 | 0.0 | 0.0 | 0.00 | 0.00 | 0.00 | 80 | 1017.8 |
| 20260905011056 | 84 | 143 | 0.0 | 0.0 | 0.00 | 0.00 | 0.00 | 79 | 1018.0 |
| 20260905010550 | 84 | 142 | 0.0 | 0.0 | 0.00 | 0.00 | 0.00 | 78 | 1017.9 |
| 20260905010047 | 84 | 146 | 0.0 | 0.0 | 0.00 | 0.00 | 0.00 | 77 | 1017.6 |
| 20260905005542 | 85 | 145 | 0.0 | 0.0 | 0.00 | 0.00 | 0.00 | 76 | 1017.6 |
| 20260905005038 | 85 | 146 | 0.0 | 0.0 | 0.00 | 0.00 | 0.00 | 75 | 1017.6 |
| 20260905004532 | 85 | 146 | 0.0 | 0.0 | 0.00 | 0.00 | 0.00 | 74 | 1017.6 |
| 20260905004027 | 86 | 146 | 0.0 | 0.0 | 0.00 | 0.00 | 0.00 | 74 | 1017.4 |
| 20260905003523 | 86 | 146 | 0.0 | 0.0 | 0.00 | 0.00 | 0.00 | 73 | 1017.4 |
| 20260905003019 | 87 | 146 | 0.0 | 0.0 | 0.00 | 0.00 | 0.00 | 72 | 1017.2 |
| 20260905002514 | 87 | 142 | 0.0 | 0.0 | 0.00 | 0.00 | 0.00 | 71 | 1017.0 |
| 20260905002008 | 87 | 142 | 0.0 | 0.0 | 0.00 | 0.00 | 0.00 | 71 | 1017.4 |
| 20260905001503 | 88 | 145 | 0.0 | 0.0 | 0.00 | 0.00 | 0.00 | 70 | 1017.4 |
| 20260905000957 | 88 | 145 | 0.0 | 0.0 | 0.00 | 0.00 | 0.00 | 70 | 1017.2 |
| 20260905000454 | 89 | 145 | 0.0 | 0.0 | 0.00 | 0.00 | 0.00 | 69 | 1017.4 |
| 20260904235948 | 89 | 145 | 0.0 | 0.0 | 0.00 | 0.00 | 0.00 | 67 | 1017.2 |
| 20260904235444 | 89 | 147 | 0.0 | 0.0 | 0.00 | 0.00 | 0.00 | 66 | 1017.2 |
| 20260904234944 | 90 | 148 | 0.0 | 0.0 | 0.00 | 0.00 | 0.00 | 66 | 1017.2 |
| 20260904234443 | 90 | 148 | 0.0 | 0.0 | 0.00 | 0.00 | 0.00 | 65 | 1017.0 |
| 20260904233940 | 91 | 147 | 0.0 | 0.0 | 0.00 | 0.00 | 0.00 | 64 | 1017.4 |
| 20260904233435 | 91 | 144 | 0.0 | 0.0 | 0.00 | 0.00 | 0.00 | 63 | 1017.3 |
| 20260904232931 | 92 | 144 | 0.0 | 0.0 | 0.00 | 0.00 | 0.00 | 62 | 1017.2 |
| 20260904232427 | 93 | 144 | 0.0 | 0.0 | 0.00 | 0.00 | 0.00 | 61 | 1017.4 |
| 20260904231923 | 93 | 142 | 0.0 | 0.0 | 0.00 | 0.00 | 0.00 | 60 | 1017.4 |
| 20260904231418 | 93 | 142 | 0.0 | 0.0 | 0.00 | 0.00 | 0.00 | 59 | 1017.3 |
| 20260904230913 | 94 | 141 | 0.0 | 0.0 | 0.00 | 0.00 | 0.00 | 58 | 1017.5 |
| 20260904230412 | 94 | 141 | 0.0 | 0.0 | 0.00 | 0.00 | 0.00 | 57 | 1017.4 |
| 20260904225907 | 95 | 141 | 0.0 | 0.0 | 0.00 | 0.00 | 0.00 | 56 | 1017.3 |
| 20260904225405 | 95 | 145 | 0.0 | 0.0 | 0.00 | 0.00 | 0.00 | 55 | 1017.2 |
| 20260904224904 | 95 | 145 | 0.0 | 0.0 | 0.00 | 0.00 | 0.00 | 53 | 1017.3 |
| 20260904224401 | 96 | 145 | 0.0 | 0.0 | 0.00 | 0.00 | 0.00 | 53 | 1017.6 |
| 20260904223855 | 96 | 147 | 0.0 | 0.0 | 0.00 | 0.00 | 0.00 | 51 | 1017.6 |
| 20260904223354 | 96 | 145 | 0.0 | 1.0 | 0.00 | 0.00 | 0.00 | 50 | 1017.6 |
| 20260904222850 | 97 | 141 | 0.0 | 0.0 | 0.00 | 0.00 | 0.00 | 49 | 1017.6 |
| 20260904222345 | 97 | 134 | 0.0 | 1.0 | 0.00 | 0.00 | 0.00 | 48 | 1017.6 |
| 20260904221844 | 97 | 142 | 0.0 | 0.0 | 0.00 | 0.00 | 0.00 | 48 | 1017.7 |
| 20260904221339 | 98 | 142 | 0.0 | 1.0 | 0.00 | 0.00 | 0.00 | 47 | 1017.9 |
| 20260904220835 | 98 | 135 | 0.0 | 1.0 | 0.00 | 0.00 | 0.00 | 46 | 1017.8 |
| 20260904220334 | 99 | 129 | 0.0 | 2.0 | 0.00 | 0.00 | 0.00 | 46 | 1017.7 |
| 20260904215829 | 99 | 145 | 0.0 | 0.0 | 0.00 | 0.00 | 0.00 | 46 | 1017.8 |
| 20260904215324 | 99 | 153 | 0.0 | 2.0 | 0.00 | 0.00 | 0.00 | 45 | 1017.8 |
| 20260904214821 | 99 | 144 | 0.0 | 1.0 | 0.00 | 0.00 | 0.00 | 44 | 1017.7 |
| 20260904214316 | 100 | 93 | 1.0 | 1.0 | 0.00 | 0.00 | 0.00 | 44 | 1017.8 |
| 20260904213814 | 100 | 163 | 1.0 | 2.0 | 0.00 | 0.00 | 0.00 | 44 | 1017.7 |
| 20260904213309 | 100 | 156 | 1.0 | 1.0 | 0.00 | 0.00 | 0.00 | 45 | 1017.8 |
| 20260904212805 | 99 | 140 | 1.0 | 2.0 | 0.00 | 0.00 | 0.00 | 45 | 1017.8 |
| 20260904212300 | 100 | 110 | 1.0 | 1.0 | 0.00 | 0.00 | 0.00 | 45 | 1017.8 |
| 20260904211755 | 100 | 137 | 1.0 | 1.0 | 0.00 | 0.00 | 0.00 | 45 | 1018.0 |
| 20260904211249 | 100 | 147 | 0.0 | 1.0 | 0.00 | 0.00 | 0.00 | 46 | 1017.9 |
| 20260904210745 | 100 | 189 | 1.0 | 2.0 | 0.00 | 0.00 | 0.00 | 46 | 1017.7 |
| 20260904210239 | 100 | 149 | 2.0 | 3.0 | 0.00 | 0.00 | 0.00 | 46 | 1017.8 |
| 20260904205736 | 100 | 70 | 2.0 | 3.0 | 0.00 | 0.00 | 0.00 | 45 | 1017.8 |
| 20260904205231 | 100 | 171 | 0.0 | 3.0 | 0.00 | 0.00 | 0.00 | 46 | 1017.9 |
| 20260904204728 | 100 | 142 | 0.0 | 1.0 | 0.00 | 0.00 | 0.00 | 46 | 1017.8 |
| 20260904204223 | 100 | 108 | 2.0 | 2.0 | 0.00 | 0.00 | 0.00 | 45 | 1017.9 |
| 20260904203719 | 101 | 120 | 1.0 | 2.0 | 0.00 | 0.00 | 0.00 | 45 | 1018.0 |
| 20260904203216 | 101 | 135 | 0.0 | 1.0 | 0.00 | 0.00 | 0.00 | 45 | 1018.0 |
| 20260904202711 | 100 | 139 | 0.0 | 2.0 | 0.00 | 0.00 | 0.00 | 45 | 1018.1 |
| 20260904202207 | 100 | 87 | 1.0 | 1.0 | 0.00 | 0.00 | 0.00 | 45 | 1018.2 |
| 20260904201708 | 101 | 134 | 0.0 | 2.0 | 0.00 | 0.00 | 0.00 | 45 | 1018.3 |
| 20260904201202 | 102 | 131 | 0.0 | 1.0 | 0.00 | 0.00 | 0.00 | 45 | 1018.4 |
| 20260904200656 | 102 | 351 | 2.0 | 3.0 | 0.00 | 0.00 | 0.00 | 44 | 1018.5 |
| 20260904200151 | 100 | 188 | 1.0 | 2.0 | 0.00 | 0.00 | 0.00 | 45 | 1018.6 |